ANIK F1R

Last updated on Tue Oct 08 2024 00:02:37 GMT+0000 (Coordinated Universal Time)

1 28868U 05036A 24281.37147302 -.00000063 00000+0 00000+0 0 9998 2 28868 2.7170 84.2064 0002611 72.2915 246.4714 1.00272351 40251
UTC large
Height (km)
Speed (km/s)
/
Latitude / Longitude
Inclination (degrees)
Orbital Period (minutes)
Azimuth
Elevation
Range (km)
Doppler Factor

Next 0 passes for location: London (51.5072 / 0.1276)

Sorry there are no passes over London.